Location: Easter Hill Village
(37.9235°N, 122.3444°W)
Time: 00:45:15
(UTC+00:00)

Cosmos 2266 Rocket - Pass Details

Date: 16 September 2019
Orbit: 935 x 1008 km, 82.9° (Epoch: 20 October)

Event Time Altitude Azimuth Distance (km) Brightness Sun altitude
Rises 13:20:07 0° 190° (S) 3,636 6.8 -7.1°
Reaches altitude 10° 13:22:38 10° 192° (SSW) 2,683 6.1 -6.6°
Maximum altitude 13:28:45 73° 277° (W) 989 3.9 -5.4°
Drops below altitude 10° 13:34:49 10° 3° (N) 2,661 6.4 -4.2°
Sets 13:37:19 0° 5° (N) 3,604 7.1 -3.7°
